Location: Kapasiwin
(53.5500°N, 114.4500°W)
Time: 05:53:28
(UTC+00:00)

X-37B - Pass Details

Date: 11 December 2021
Orbit: 334 x 337 km, 45.0° (Epoch: 11 January)

Event Time Altitude Azimuth Distance (km) Brightness Sun altitude
Rises 01:49:23 0° 234° (SW) 2,102 5.4 -21.0°
Reaches altitude 10° 01:51:58 10° 208° (SSW) 1,266 3.7 -21.4°
Enters shadow 01:52:52 13° 191° (S) 1,097 3.1 -21.5°
